Sturgeon Bay, WI

5:38 PM CST on December 16, 2017 (GMT -0600)
Door County Cherryland

Weather History for KSUE - August, 2013

Change the Weather History Date:

Wednesday, August 21, 2013

  Actual Average Record
Temperature  
Mean Temperature 74 °F -  
Max Temperature 87 °F 76 °F 102 °F (1955)
Min Temperature 62 °F 55 °F 39 °F (1907)
Cooling Degree Days 10    
Growing Degree Days 24 (Base 50)    
Moisture  
Dew Point 66 °F    
Average Humidity 73    
Maximum Humidity 94    
Minimum Humidity 55    
Precipitation  
Precipitation 0.83 in - - ()
Sea Level Pressure  
Sea Level Pressure 29.96 in    
Wind  
Wind Speed 10 mph (SSW)    
Max Wind Speed 24 mph    
Max Gust Speed 40 mph    
Visibility 10 miles    
Events Thunderstorm    
Averages and records for this station are not official NWS values.
T = Trace of Precipitation, MM = Missing Value Source: NWS Daily Summary

Daily Weather History Graph

Daily Weather History Graph

Search for Another Location

Airport or City:

Trip Planner

Search our weather history database for the weather conditions in past years. The results will help you decide how hot, cold, wet, or windy it might be!

Date:

Astronomy

Aug. 21, 2013 Rise Set
Actual Time 5:59 AM CDT 7:45 PM CDT
Civil Twilight 5:27 AM CDT 8:16 PM CDT
Nautical Twilight 4:49 AM CDT 8:54 PM CDT
Astronomical Twilight 4:08 AM CDT 9:35 PM CDT
Moon 7:48 PM CDT (8/21) 6:43 AM CDT (8/21)
Length of Visible Light 14h 48m
Length of Day
13h 46m
Waxing Gibbous, 99% of the Moon is Illuminated
Aug 21
Waxing Gibbous
Aug 28
Last Quarter
Sep 5
New
Sep 12
First Quarter
Sep 19
Full

Hourly Weather History & Observations

Time (CDT) Temp. Heat Index Dew Point Humidity Pressure Visibility Wind Dir Wind Speed Gust Speed Precip Events Conditions
12:15 AM 69.8 °F - 64.4 °F 83% 30.00 in 10.0 mi SSW 10.4 mph - N/A   Clear
12:35 AM 71.6 °F - 64.4 °F 78% 30.00 in 10.0 mi SSW 10.4 mph - N/A   Mostly Cloudy
12:55 AM 71.6 °F - 62.6 °F 73% 30.00 in 10.0 mi SSW 9.2 mph - N/A   Scattered Clouds
1:15 AM 71.6 °F - 62.6 °F 73% 29.99 in 10.0 mi SSW 10.4 mph - N/A   Partly Cloudy
1:35 AM 71.6 °F - 62.6 °F 73% 29.99 in 10.0 mi South 9.2 mph - N/A   Clear
1:55 AM 71.6 °F - 62.6 °F 73% 29.98 in 10.0 mi SSW 10.4 mph - N/A   Mostly Cloudy
2:15 AM 71.6 °F - 62.6 °F 73% 29.98 in 10.0 mi SSW 9.2 mph - N/A   Mostly Cloudy
2:35 AM 71.6 °F - 62.6 °F 73% 29.98 in 10.0 mi SSW 9.2 mph - N/A   Scattered Clouds
2:55 AM 71.6 °F - 62.6 °F 73% 29.98 in 10.0 mi SSW 9.2 mph - N/A   Partly Cloudy
3:15 AM 69.8 °F - 62.6 °F 78% 29.99 in 10.0 mi SSW 8.1 mph - N/A   Clear
3:35 AM 69.8 °F - 62.6 °F 78% 29.98 in 10.0 mi SSW 8.1 mph - N/A   Scattered Clouds
3:55 AM 69.8 °F - 62.6 °F 78% 29.98 in 10.0 mi SSW 6.9 mph - N/A   Mostly Cloudy
4:15 AM 69.8 °F - 64.4 °F 83% 29.98 in 10.0 mi SSW 8.1 mph - N/A   Overcast
4:35 AM 69.8 °F - 64.4 °F 83% 29.98 in 10.0 mi SSW 9.2 mph - N/A   Overcast
4:55 AM 71.6 °F - 64.4 °F 78% 29.97 in 10.0 mi SSW 10.4 mph - N/A   Overcast
5:15 AM 71.6 °F - 64.4 °F 78% 29.97 in 10.0 mi SSW 10.4 mph - N/A   Overcast
5:35 AM 71.6 °F - 64.4 °F 78% 29.97 in 10.0 mi SSW 11.5 mph - N/A   Overcast
5:55 AM 71.6 °F - 64.4 °F 78% 29.97 in 10.0 mi SSW 12.7 mph 18.4 mph N/A   Overcast
6:15 AM 71.6 °F - 64.4 °F 78% 29.97 in 10.0 mi SSW 11.5 mph - N/A   Mostly Cloudy
6:35 AM 71.6 °F - 64.4 °F 78% 29.96 in 10.0 mi South 10.4 mph - N/A   Partly Cloudy
6:55 AM 71.6 °F - 64.4 °F 78% 29.97 in 10.0 mi SSW 9.2 mph - N/A   Scattered Clouds
7:15 AM 71.6 °F - 64.4 °F 78% 29.97 in 10.0 mi SSW 9.2 mph - N/A   Scattered Clouds
7:35 AM 73.4 °F - 64.4 °F 73% 29.98 in 10.0 mi SW 8.1 mph - N/A   Clear
7:55 AM 73.4 °F - 66.2 °F 78% 29.98 in 10.0 mi SW 11.5 mph - N/A   Clear
8:15 AM 75.2 °F - 66.2 °F 73% 29.98 in 10.0 mi SSW 9.2 mph - N/A   Clear
8:35 AM 75.2 °F - 64.4 °F 69% 29.99 in 10.0 mi SW 10.4 mph - N/A   Clear
8:55 AM 77.0 °F - 66.2 °F 69% 29.99 in 10.0 mi SW 10.4 mph - N/A   Clear
9:15 AM 77.0 °F - 66.2 °F 69% 29.98 in 10.0 mi SW 12.7 mph 19.6 mph N/A   Clear
9:35 AM 78.8 °F - 66.2 °F 65% 29.99 in 10.0 mi WSW 11.5 mph - N/A   Scattered Clouds
9:55 AM 78.8 °F - 66.2 °F 65% 29.98 in 10.0 mi SW 10.4 mph - N/A   Mostly Cloudy
10:15 AM 78.8 °F - 66.2 °F 65% 29.98 in 10.0 mi WSW 13.8 mph 19.6 mph N/A   Mostly Cloudy
10:35 AM 78.8 °F - 66.2 °F 65% 29.97 in 10.0 mi SW 10.4 mph 16.1 mph N/A   Scattered Clouds
10:55 AM 80.6 °F 83.2 °F 68.0 °F 65% 29.97 in 10.0 mi SW 11.5 mph - N/A   Clear
11:15 AM 82.4 °F 85.4 °F 68.0 °F 62% 29.97 in 10.0 mi SW 11.5 mph - N/A   Clear
11:35 AM 82.4 °F 86.3 °F 69.8 °F 66% 29.95 in 10.0 mi SSW 15.0 mph - N/A   Clear
11:55 AM 84.2 °F 88.4 °F 69.8 °F 62% 29.95 in 10.0 mi South 13.8 mph 18.4 mph N/A   Clear
12:15 PM 84.2 °F 88.4 °F 69.8 °F 62% 29.95 in 10.0 mi SW 11.5 mph 18.4 mph N/A   Clear
12:35 PM 84.2 °F 88.4 °F 69.8 °F 62% 29.95 in 10.0 mi South 11.5 mph 18.4 mph N/A   Clear
12:55 PM 84.2 °F 88.4 °F 69.8 °F 62% 29.94 in 10.0 mi SSE 11.5 mph - N/A   Clear
1:15 PM 84.2 °F 88.4 °F 69.8 °F 62% 29.94 in 10.0 mi South 13.8 mph - N/A   Clear
1:35 PM 84.2 °F 88.4 °F 69.8 °F 62% 29.94 in 10.0 mi South 15.0 mph 19.6 mph N/A   Clear
1:55 PM 84.2 °F 88.4 °F 69.8 °F 62% 29.93 in 10.0 mi South 13.8 mph 19.6 mph N/A   Clear
2:15 PM 84.2 °F 88.4 °F 69.8 °F 62% 29.92 in 10.0 mi South 12.7 mph - N/A   Clear
2:35 PM 84.2 °F 88.4 °F 69.8 °F 62% 29.92 in 10.0 mi South 13.8 mph - N/A   Clear
2:55 PM 84.2 °F 88.4 °F 69.8 °F 62% 29.91 in 10.0 mi South 11.5 mph - N/A   Partly Cloudy
3:15 PM 86.0 °F 91.8 °F 71.6 °F 62% 29.90 in 10.0 mi South 12.7 mph - N/A   Partly Cloudy
3:35 PM 86.0 °F 91.8 °F 71.6 °F 62% 29.88 in 10.0 mi South 12.7 mph 19.6 mph N/A   Clear
3:55 PM 86.0 °F 90.4 °F 69.8 °F 58% 29.87 in 10.0 mi South 11.5 mph 19.6 mph N/A   Clear
4:15 PM 86.0 °F 91.8 °F 71.6 °F 62% 29.88 in 10.0 mi South 11.5 mph 17.3 mph N/A   Clear
4:35 PM 87.8 °F 92.6 °F 69.8 °F 55% 29.88 in 10.0 mi SSW 10.4 mph 19.6 mph N/A   Clear
4:55 PM 87.8 °F 93.8 °F 71.6 °F 58% 29.87 in 10.0 mi South 6.9 mph 17.3 mph N/A   Clear
5:15 PM 87.8 °F 92.6 °F 69.8 °F 55% 29.86 in 10.0 mi SSW 17.3 mph 26.5 mph N/A   Clear
5:35 PM 86.0 °F 90.4 °F 69.8 °F 58% 29.86 in 10.0 mi South 10.4 mph 20.7 mph N/A   Clear
5:55 PM 86.0 °F 90.4 °F 69.8 °F 58% 29.88 in 10.0 mi SW 9.2 mph - N/A   Partly Cloudy
6:15 PM 84.2 °F 88.4 °F 69.8 °F 62% 29.87 in 10.0 mi SSW 10.4 mph - N/A   Mostly Cloudy
6:35 PM 84.2 °F 88.4 °F 69.8 °F 62% 29.88 in 10.0 mi SSE 6.9 mph - N/A   Mostly Cloudy
6:55 PM 80.6 °F 83.9 °F 69.8 °F 70% 29.89 in 10.0 mi SSE 5.8 mph - N/A   Overcast
7:15 PM 78.8 °F - 68.0 °F 69% 29.90 in 10.0 mi SSE 5.8 mph - N/A Thunderstorm Overcast
7:35 PM 71.6 °F - 60.8 °F 69% 29.98 in 9.0 mi North 24.2 mph 40.3 mph 0.04 in Thunderstorm Thunderstorm
7:55 PM 64.4 °F - 62.6 °F 94% 30.01 in 4.0 mi NNW 12.7 mph - 0.64 in Thunderstorm Thunderstorm
8:15 PM 64.4 °F - 62.6 °F 94% 29.95 in 10.0 mi Calm Calm - 0.14 in Thunderstorm Thunderstorm
8:35 PM 66.2 °F - 62.6 °F 88% 29.93 in 10.0 mi South 6.9 mph - 0.16 in Thunderstorm Overcast
8:55 PM 68.0 °F - 62.6 °F 83% 29.97 in 10.0 mi SW 17.3 mph 25.3 mph 0.16 in Thunderstorm Mostly Cloudy
9:15 PM 68.0 °F - 64.4 °F 88% 29.96 in 10.0 mi West 8.1 mph - 0.01 in Thunderstorm Thunderstorm
9:35 PM 68.0 °F - 64.4 °F 88% 29.99 in 10.0 mi NNE 8.1 mph - 0.03 in Thunderstorm Overcast
9:55 PM 68.0 °F - 64.4 °F 88% 30.00 in 10.0 mi ESE 10.4 mph - 0.03 in   Overcast
10:15 PM 64.4 °F - 62.6 °F 94% 30.01 in 10.0 mi East 10.4 mph - N/A   Scattered Clouds
10:35 PM 64.4 °F - 60.8 °F 88% 30.01 in 10.0 mi ESE 6.9 mph - N/A   Partly Cloudy
10:55 PM 64.4 °F - 60.8 °F 88% 30.00 in 10.0 mi South 3.5 mph - N/A   Partly Cloudy
11:15 PM 62.6 °F - 60.8 °F 94% 29.99 in 10.0 mi Calm Calm - N/A   Clear
11:35 PM 64.4 °F - 60.8 °F 88% 29.97 in 10.0 mi Calm Calm - N/A   Clear
11:55 PM 64.4 °F - 60.8 °F 88% 29.97 in 10.0 mi NNW 3.5 mph - N/A   Clear